FW8013 Weather Reports


time (UTC)temp
C
wind
direction
speed
KPH
gust
KPH
rain 1hr
cm
rain 24hr
cm
rain mn
cm
humidity
%
barometer
mb
20260901063059 20 0 0.0 0.0 0.00 0.00 0.00 97 1017.4
20260901061607 20 0 0.0 0.0 0.00 0.00 0.00 97 1017.5
20260901054603 20 0 0.0 3.2 0.00 0.00 0.00 97 1017.7
20260901053054 20 0 0.0 0.0 0.00 0.00 0.00 97 1018.0
20260901051603 21 0 0.0 0.0 0.00 0.00 0.00 96 1018.0
20260901050059 21 0 0.0 0.0 0.00 0.00 0.00 96 1018.1
20260901044601 21 0 0.0 0.0 0.00 0.00 0.00 96 1017.9
20260901043104 21 0 0.0 0.0 0.00 0.00 0.00 96 1018.0
20260901041600 21 230 0.0 3.2 0.00 0.00 0.00 96 1018.1
20260901040114 21 0 0.0 4.8 0.00 0.00 0.00 96 1018.1
20260901034556 21 0 0.0 0.0 0.00 0.00 0.00 96 1018.2
20260901033101 21 0 0.0 1.6 0.00 0.00 0.00 96 1018.4
20260901031559 21 0 0.0 0.0 0.00 0.00 0.00 96 1018.4
20260901030058 21 0 0.0 0.0 0.00 0.00 0.00 95 1018.7
20260901024557 21 0 0.0 0.0 0.00 0.00 0.00 95 1018.7
20260901023054 21 0 0.0 0.0 0.00 0.00 0.00 95 1018.8
20260901021601 21 0 0.0 0.0 0.00 0.00 0.00 95 1019.0
20260901014601 21 0 0.0 0.0 0.00 0.00 0.00 94 1018.9
20260901013108 21 0 0.0 0.0 0.00 0.00 0.00 94 1018.9
20260901011558 21 0 0.0 0.0 0.00 0.00 0.00 94 1018.9
20260901010108 21 0 0.0 0.0 0.00 0.00 0.00 94 1019.0
20260901004601 21 0 0.0 0.0 0.00 0.00 0.00 94 1018.8
20260901003103 21 0 0.0 0.0 0.00 0.00 0.00 93 1018.8
20260901001559 21 0 0.0 0.0 0.00 0.00 0.00 92 1018.6
20260901000100 21 0 0.0 0.0 0.00 0.00 0.00 92 1018.5
20260831234601 22 0 0.0 0.0 0.00 0.00 0.00 91 1018.5
20260831233104 22 0 0.0 0.0 0.00 0.00 0.00 90 1018.7
20260831231604 22 0 0.0 0.0 0.00 0.00 0.00 90 1018.8
20260831230100 22 0 0.0 0.0 0.00 0.00 0.00 88 1018.9
20260831224601 23 0 0.0 0.0 0.00 0.00 0.00 88 1019.1
20260831223100 23 0 0.0 0.0 0.00 0.00 0.00 87 1019.1
20260831221624 23 0 0.0 0.0 0.00 0.00 0.00 86 1019.1
20260831220103 23 0 0.0 0.0 0.00 0.00 0.00 87 1019.2
20260831214601 23 0 0.0 0.0 0.00 0.00 0.00 87 1019.4
20260831213059 23 0 0.0 0.0 0.00 0.00 0.00 85 1019.3
20260831211556 23 0 0.0 1.6 0.00 0.00 0.00 84 1019.5
20260831204556 23 0 0.0 1.6 0.00 0.00 0.00 82 1019.7
20260831203134 23 0 0.0 1.6 0.00 0.00 0.00 83 1019.7
20260831201605 23 193 0.0 3.2 0.00 0.00 0.00 85 1019.8
20260831200137 23 0 0.0 3.2 0.00 0.00 0.00 86 1020.0
20260831194612 23 234 0.0 0.0 0.00 0.00 0.00 87 1020.1
20260831193059 23 0 0.0 1.6 0.00 0.00 0.00 85 1020.3
20260831191600 23 0 1.6 4.8 0.00 0.00 0.00 82 1020.4
20260831184602 23 0 0.0 3.2 0.00 0.00 0.00 80 1020.7
20260831183104 23 0 0.0 1.6 0.00 0.00 0.00 78 1020.7
20260831181602 24 0 0.0 3.2 0.00 0.00 0.00 78 1020.7
20260831180116 24 0 0.0 4.8 0.00 0.00 0.00 76 1020.6
20260831174604 24 0 0.0 1.6 0.00 0.00 0.00 78 1020.7
20260831173106 24 0 0.0 1.6 0.00 0.00 0.00 75 1020.7
20260831171605 24 0 0.0 4.8 0.00 0.00 0.00 75 1020.7
20260831170121 24 0 0.0 4.8 0.00 0.00 0.00 75 1020.9
20260831164558 24 96 1.6 8.0 0.00 0.00 0.00 77 1020.6
20260831163102 23 90 0.0 11.3 0.00 0.00 0.00 77 1020.7
20260831161623 23 82 0.0 9.7 0.00 0.00 0.00 79 1020.7
20260831160103 22 101 0.0 6.4 0.00 0.00 0.00 80 1020.7
20260831154624 22 0 0.0 3.2 0.00 0.00 0.00 80 1020.8
20260831153058 22 81 1.6 6.4 0.00 0.00 0.00 81 1020.9
20260831151601 22 0 0.0 4.8 0.00 0.00 0.00 82 1021.0
20260831150101 22 0 0.0 4.8 0.00 0.00 0.00 82 1021.1
20260831144601 22 0 0.0 1.6 0.00 0.00 0.00 83 1021.3
20260831143059 21 0 1.6 6.4 0.00 0.00 0.00 84 1021.3
20260831141607 21 0 0.0 0.0 0.00 0.00 0.00 86 1021.1
20260831134557 21 0 0.0 0.0 0.00 0.00 0.00 88 1021.0
20260831133103 20 0 0.0 4.8 0.00 0.00 0.00 87 1020.8
20260831131608 20 0 0.0 3.2 0.00 0.00 0.00 90 1021.0
20260831124559 19 0 0.0 0.0 0.00 0.00 0.00 93 1020.8
20260831123054 19 0 0.0 0.0 0.00 0.00 0.00 93 1020.7
20260831121559 18 0 0.0 0.0 0.00 0.00 0.00 95 1020.8
20260831120134 18 0 0.0 0.0 0.00 0.00 0.00 96 1020.7
20260831114559 18 0 0.0 0.0 0.00 0.00 0.00 96 1020.6
20260831113104 18 0 0.0 0.0 0.00 0.00 0.00 96 1020.3
20260831111600 18 0 0.0 0.0 0.00 0.00 0.00 96 1020.2
20260831110105 17 0 0.0 0.0 0.00 0.00 0.00 96 1019.8
20260831104604 17 0 0.0 0.0 0.00 0.00 0.00 96 1020.1
20260831103054 17 0 0.0 0.0 0.00 0.00 0.00 96 1020.0
20260831101602 17 0 0.0 0.0 0.00 0.00 0.00 96 1020.0
20260831100109 17 0 0.0 0.0 0.00 0.00 0.00 95 1019.8
20260831094555 17 0 0.0 0.0 0.00 0.00 0.00 95 1019.9
20260831093056 17 0 0.0 0.0 0.00 0.00 0.00 95 1019.8
20260831091558 18 0 0.0 4.8 0.00 0.00 0.00 95 1019.6
20260831090105 18 0 0.0 0.0 0.00 0.00 0.00 94 1019.7
20260831084601 18 0 0.0 0.0 0.00 0.00 0.00 93 1019.6
20260831083056 18 0 0.0 0.0 0.00 0.00 0.00 93 1019.6
20260831081600 19 0 0.0 0.0 0.00 0.00 0.00 92 1019.8
20260831080058 19 0 0.0 0.0 0.00 0.00 0.00 91 1019.9
20260831074557 20 0 0.0 0.0 0.00 0.00 0.00 90 1019.8
20260831073101 20 0 0.0 0.0 0.00 0.00 0.00 90 1019.7
20260831071614 20 0 0.0 0.0 0.00 0.00 0.00 90 1019.7
20260831070109 20 0 0.0 0.0 0.00 0.00 0.00 91 1019.5
20260831064604 20 0 0.0 1.6 0.00 0.00 0.00 93 1019.5